Simultaneous Nadir Overpasses (SNOs) Predictions

Prediction of SNOs between GOES-17 and NOAA-20 Satellite Orbit:

Table of predicted SNOs for the next 14.0 days since TLE Epoch: 5/11/2024
Index Date Time (GOES-17) GOES-17 Lat,Lon NOAA-20 Lat,Lon Distance(km) Time Diff (sec)
1 05/12/2024 08:40:20 -0.00,-104.70 0.82,-108.36 416.33 80
2 05/13/2024 08:18:53 -0.00,-104.70 -0.19,-103.82 100.48 80
3 05/15/2024 20:24:40 0.01,-104.69 0.03,-104.58 13.04 80
4 05/18/2024 08:27:39 -0.01,-104.71 0.10,-105.31 67.87 80
5 05/19/2024 08:06:11 -0.01,-104.71 -0.87,-100.76 449.56 80
6 05/20/2024 20:28:05 0.02,-104.71 -0.28,-106.07 154.47 80
7 05/21/2024 20:11:57 0.02,-104.71 0.71,-101.52 362.88 80
8 05/23/2024 08:33:43 -0.03,-104.72 0.43,-106.79 235.61 80
9 05/24/2024 08:12:15 -0.03,-104.72 -0.56,-102.25 281.48 80
